User: anonymous   Login
Location: *
(44.1392°N, 4.8079°E)
Time: 02:02:43
(UTC+00:00)
Language:

Cosmos 1500 Rocket - Orbit

View from above orbital plane
View from above orbital plane
View from above satellite
View from above satellite

Ground track
Ground track

The orbit data is extracted from the following two-line orbital elements,

1 14373U 83099B   21267.94327902  .00000133  00000-0  13026-4 0  9994
2 14373  82.5403 225.7249 0021604 113.8000 307.2589 14.83846225 31224
Epoch (UTC): 24 September 2021 22:38:19
Eccentricity: 0.0021604
inclination: 82.5403°
perigee height: 602 km
apogee height: 632 km
right ascension of ascending node: 225.7249°
argument of perigee: 113.8000°
revolutions per day: 14.83846225
mean anomaly at epoch: 307.2589°
orbit number at epoch: 3122

The dashed part of the orbit path shows where the satellite is in the earth's shadow,  

DLR